Torna al catalogo

FALCON 9 R/B

AttivoHEO
NORAD 42968·ROCKET BODY·🇺🇸 United States

Lanciato Oct 11, 2017 da Cape Canaveral Space Force Station

Loading…

Prossimi Passaggi (prossime 24 ore)

TLE

AggiornatoSource: Space-Track

Epoca: Sep 14, 2026, 11:32 UTC

1 42968U 17063B   26257.48102704  .00222182  34871-6  18126-2 0  9990
2 42968  27.8762  47.7289 5127108 132.5613 284.0478  5.56936458106332

Traccia FALCON 9 R/B in tempo reale con AllMySat

Download on the App Store